Crane Lake, MN

10:33 PM CDT on July 27, 2016 (GMT -0500)
Crane Lake

Weather History for KCDD - January, 2014

Change the Weather History Date:

Wednesday, January 8, 2014

  Actual Average Record
Temperature  
Mean Temperature -14 °F -  
Max Temperature 5 °F 14 °F 46 °F (2003)
Min Temperature -34 °F 0 °F -34 °F (2014)
Degree Days  
Heating Degree Days 80    
Moisture  
Dew Point -28 °F    
Average Humidity 68    
Maximum Humidity 84    
Minimum Humidity 54    
Precipitation  
Precipitation 0.00 in - - ()
Sea Level Pressure  
Sea Level Pressure 30.30 in    
Wind  
Wind Speed 0 mph (West)    
Max Wind Speed 6 mph    
Max Gust Speed -    
Visibility 10 miles    
Events      
Averages and records for this station are not official NWS values.
T = Trace of Precipitation, MM = Missing Value Source: NWS Daily Summary

Daily Weather History Graph

Daily Weather History Graph

Search for Another Location

Airport or City:

Trip Planner

Search our weather history database for the weather conditions in past years. The results will help you decide how hot, cold, wet, or windy it might be!

Date:

Astronomy

Jan. 08, 2014 Rise Set
Actual Time 7:59 AM CST 4:34 PM CST
Civil Twilight 7:23 AM CST 5:10 PM CST
Nautical Twilight 6:44 AM CST 5:49 PM CST
Astronomical Twilight 6:06 AM CST 6:27 PM CST
Moon 11:42 AM CST (1/8) 12:48 AM CST (1/8)
Length of Visible Light 9h 46m
Length of Day
8h 34m
First Quarter, 56% of the Moon is Illuminated
Jan 8
First Quarter
Jan 15
Full
Jan 23
Last Quarter
Jan 30
New
Feb 6
First Quarter

Hourly Weather History & Observations

Time (CST) Temp. Windchill Dew Point Humidity Pressure Visibility Wind Dir Wind Speed Gust Speed Precip Events Conditions
12:04 AM -22.0 °F - -27.4 °F 76% 30.17 in 10.0 mi Calm Calm - N/A   Overcast
12:24 AM -23.8 °F - -27.4 °F 83% 30.18 in 10.0 mi Calm Calm - N/A   Overcast
12:44 AM -23.8 °F - -29.2 °F 76% 30.19 in 10.0 mi Calm Calm - N/A   Scattered Clouds
1:04 AM -25.6 °F - -32.8 °F 69% 30.19 in 10.0 mi Calm Calm - N/A   Clear
1:24 AM -25.6 °F - -32.8 °F 69% 30.20 in 10.0 mi Calm Calm - N/A   Scattered Clouds
1:44 AM -25.6 °F - -32.8 °F 69% 30.21 in 10.0 mi Calm Calm - N/A   Scattered Clouds
2:04 AM -27.4 °F - -32.8 °F 75% 30.21 in 10.0 mi Calm Calm - N/A   Clear
2:24 AM -27.4 °F - -34.6 °F 69% 30.21 in 10.0 mi Calm Calm - N/A   Clear
2:44 AM -27.4 °F - -34.6 °F 69% 30.22 in 10.0 mi Calm Calm - N/A   Clear
3:04 AM -29.2 °F - -36.4 °F 68% 30.23 in 10.0 mi Calm Calm - N/A   Clear
3:24 AM -29.2 °F - -36.4 °F 68% 30.24 in 10.0 mi Calm Calm - N/A   Clear
3:44 AM -31.0 °F - -36.4 °F 75% 30.24 in 10.0 mi Calm Calm - N/A   Clear
4:04 AM -31.0 °F - -38.2 °F 68% 30.23 in 10.0 mi Calm Calm - N/A   Clear
4:24 AM -32.8 °F - -38.2 °F 75% 30.24 in 10.0 mi Calm Calm - N/A   Clear
4:44 AM -32.8 °F - -38.2 °F 75% 30.24 in 10.0 mi Calm Calm - N/A   Mostly Cloudy
5:04 AM -32.8 °F - -38.2 °F 75% 30.24 in 10.0 mi Calm Calm - N/A   Scattered Clouds
5:24 AM -32.8 °F - -38.2 °F 75% 30.24 in 10.0 mi Calm Calm - N/A   Mostly Cloudy
5:44 AM -32.8 °F - -40.0 °F 68% 30.24 in 10.0 mi Calm Calm - N/A   Mostly Cloudy
6:04 AM -32.8 °F - -40.0 °F 68% 30.24 in 10.0 mi Calm Calm - N/A   Scattered Clouds
6:24 AM -32.8 °F - -40.0 °F 68% 30.25 in 10.0 mi Calm Calm - N/A   Clear
6:44 AM -34.6 °F - -41.8 °F 68% 30.25 in 10.0 mi Calm Calm - N/A   Clear
7:04 AM -34.6 °F - -41.8 °F 68% 30.26 in 10.0 mi Calm Calm - N/A   Clear
7:24 AM -34.6 °F - -41.8 °F 68% 30.27 in 10.0 mi Calm Calm - N/A   Clear
7:44 AM - - -41.8 °F N/A% 30.28 in 10.0 mi Calm Calm - N/A   Clear
8:04 AM -34.6 °F - -41.8 °F 68% 30.29 in 10.0 mi Calm Calm - N/A   Clear
8:24 AM -34.6 °F - -41.8 °F 68% 30.29 in 10.0 mi Calm Calm - N/A   Clear
8:44 AM -32.8 °F - -40.0 °F 68% 30.30 in 10.0 mi Calm Calm - N/A   Clear
9:04 AM -29.2 °F - -36.4 °F 68% 30.31 in 10.0 mi Calm Calm - N/A   Clear
9:24 AM -23.8 °F -37.7 °F -27.4 °F 83% 30.32 in 10.0 mi South 4.6 mph - N/A   Clear
9:44 AM -16.6 °F - -20.2 °F 84% 30.32 in 10.0 mi Calm Calm - N/A   Clear
10:04 AM -11.2 °F -23.0 °F -16.6 °F 77% 30.32 in 10.0 mi SW 4.6 mph - N/A   Clear
10:23 AM -7.6 °F -16.5 °F -11.2 °F 84% 30.33 in 10.0 mi SSW 3.5 mph - N/A   Clear
10:44 AM -4.0 °F -12.4 °F -9.4 °F 78% 30.33 in 10.0 mi SW 3.5 mph - N/A   Clear
11:04 AM -2.2 °F - -7.6 °F 78% 30.32 in 10.0 mi Calm Calm - N/A   Clear
11:24 AM -0.4 °F - -7.6 °F 72% 30.32 in 10.0 mi Calm Calm - N/A   Clear
11:44 AM -0.4 °F - -7.6 °F 72% 30.32 in 10.0 mi Calm Calm - N/A   Clear
12:04 PM 1.4 °F -8.3 °F -7.6 °F 66% 30.32 in 10.0 mi NW 4.6 mph - N/A   Clear
12:24 PM 1.4 °F -8.3 °F -7.6 °F 66% 30.32 in 10.0 mi WNW 4.6 mph - N/A   Clear
12:43 PM 1.4 °F - -7.6 °F 66% 30.32 in 10.0 mi Calm Calm - N/A   Clear
1:04 PM 3.2 °F - -7.6 °F 61% 30.31 in 10.0 mi Calm Calm - N/A   Clear
1:24 PM 3.2 °F -6.2 °F -7.6 °F 61% 30.31 in 10.0 mi WNW 4.6 mph - N/A   Clear
1:44 PM 3.2 °F -7.8 °F -7.6 °F 61% 30.32 in 10.0 mi West 5.8 mph - N/A   Clear
2:03 PM 5.0 °F -2.1 °F -5.8 °F 61% 30.32 in 10.0 mi West 3.5 mph - N/A   Clear
2:24 PM 5.0 °F -2.1 °F -5.8 °F 61% 30.33 in 10.0 mi West 3.5 mph - N/A   Clear
2:43 PM 5.0 °F -4.1 °F -5.8 °F 61% 30.34 in 10.0 mi WSW 4.6 mph - N/A   Clear
3:04 PM 3.2 °F -4.2 °F -7.6 °F 61% 30.34 in 10.0 mi West 3.5 mph - N/A   Clear
3:24 PM 3.2 °F - -7.6 °F 61% 30.35 in 10.0 mi Calm Calm - N/A   Clear
3:44 PM 1.4 °F - -9.4 °F 61% 30.36 in 10.0 mi Calm Calm - N/A   Clear
4:04 PM -2.2 °F - -14.8 °F 55% 30.35 in 10.0 mi Calm Calm - N/A   Clear
4:24 PM -7.6 °F - -18.4 °F 59% 30.36 in 10.0 mi Calm Calm - N/A   Clear
4:43 PM -11.2 °F - -23.8 °F 54% 30.36 in 10.0 mi Calm Calm - N/A   Clear
5:04 PM -14.8 °F - -25.6 °F 58% 30.37 in 10.0 mi Calm Calm - N/A   Clear
5:24 PM -16.6 °F - -25.6 °F 64% 30.36 in 10.0 mi Calm Calm - N/A   Clear
5:44 PM -18.4 °F - -27.4 °F 63% 30.36 in 10.0 mi Calm Calm - N/A   Clear
6:04 PM -20.2 °F - -29.2 °F 63% 30.36 in 10.0 mi Calm Calm - N/A   Clear
6:23 PM -22.0 °F - -29.2 °F 69% 30.36 in 10.0 mi Calm Calm - N/A   Clear
6:43 PM -23.8 °F - -31.0 °F 69% 30.36 in 10.0 mi Calm Calm - N/A   Clear
7:04 PM -23.8 °F - -32.8 °F 63% 30.36 in 10.0 mi Calm Calm - N/A   Clear
7:24 PM -25.6 °F - -32.8 °F 69% 30.36 in 10.0 mi Calm Calm - N/A   Clear
7:44 PM -25.6 °F - -34.6 °F 63% 30.36 in 10.0 mi Calm Calm - N/A   Clear
8:04 PM -25.6 °F - -34.6 °F 63% 30.35 in 10.0 mi Calm Calm - N/A   Clear
8:24 PM -27.4 °F - -34.6 °F 69% 30.35 in 10.0 mi Calm Calm - N/A   Clear
8:44 PM -27.4 °F - -34.6 °F 69% 30.35 in 10.0 mi Calm Calm - N/A   Clear
9:04 PM -27.4 °F - -36.4 °F 62% 30.34 in 10.0 mi Calm Calm - N/A   Clear
9:24 PM -29.2 °F - -36.4 °F 68% 30.35 in 10.0 mi Calm Calm - N/A   Clear
9:44 PM -29.2 °F - -36.4 °F 68% 30.34 in 10.0 mi Calm Calm - N/A   Clear
10:04 PM -29.2 °F - -36.4 °F 68% 30.34 in 10.0 mi Calm Calm - N/A   Clear
10:24 PM -29.2 °F - -36.4 °F 68% 30.33 in 10.0 mi Calm Calm - N/A   Clear
10:44 PM -29.2 °F - -36.4 °F 68% 30.32 in 10.0 mi Calm Calm - N/A   Clear
11:04 PM -29.2 °F - -38.2 °F 62% 30.31 in 10.0 mi Calm Calm - N/A   Clear
11:24 PM -29.2 °F - -38.2 °F 62% 30.30 in 10.0 mi Calm Calm - N/A   Clear
11:44 PM -29.2 °F - -38.2 °F 62% 30.30 in 10.0 mi Calm Calm - N/A   Clear